sat.trackr.live / text

‹ back to catalog

STARLINK-3838

NORAD 52352 · 2022-045X

PAYLOAD ACTIVE UNKNOWN

§ Identity

Operator
Country
US
Launch date
2022-04-29
Launch site
AFETR
Launch vehicle
Mass (kg)
RCS (m²)

Purposes: comms

External: N2YO · Heavens-Above · Gunter

§ Orbital elements

Epoch: 2026-09-19T17:48:39.974976Z

Period
93.85 min
Inclination
53.1612°
Eccentricity
0.0001067
Mean motion
15.34392927 rev/d
Perigee alt
462.0 km
Apogee alt
463.5 km
Semi-major
6,840.9 km
B*
2.5243e-5
RAAN
39.3372°
Arg perigee
84.3637°
Mean anomaly
275.7487°
Rev number
24,519

§ Raw data

STARLINK-38381 52352U 22045X   26262.74212934  .00000477  00000+0  25243-4 0  99972 52352  53.1612  39.3372 0001067  84.3637 275.7487 15.34392927245195

JSON: /api/v1/satellites/52352 · /tle

For live sub-satellite position, see the globe view (requires WebGL).

§ Visibility from observer

Set your observer location to see the next 7 days of passes ≥ 10°. The values pass through the URL so the page stays shareable.

No JS? Fill the form by hand. The geolocation button needs JavaScript.